#timestamp,LO_Frequency,Hit,StdDev 
1566406815.0,286047000.7,N
1566406815.9,286047000.7,N
1566406835.8,286046998.7,N
1566406855.6,286047000.7,N
1566406875.4,286047000.3,N
1566406895.3,286046999.2,N
1566406915.1,286046998.7,N
1566406935.9,286047000.3,N
1566406955.7,286047000.0,N
1566406975.5,286046998.7,N
1566406995.4,286046998.3,N
1566407015.2,286046998.6,N
1566407035.0,286046996.7,Y
1566407035.9,286046996.7,P
1566407055.8,286046997.4,N
1566407075.6,286046996.7,N
1566407095.5,286046999.8,N
1566407115.3,286047000.0,N
1566407135.1,286046999.1,N
1566407155.9,286046998.7,N
1566407175.7,286047000.0,N
1566407195.5,286046998.4,N
1566407215.4,286046999.5,N
1566407235.2,286046995.0,Y
1566407255.1,286046994.9,P
1566407256.0,286046994.9,N
1566407275.8,286046995.9,N
1566407295.6,286046993.8,Y
1566407315.5,286047000.7,P
1566407335.3,286047000.5,N
1566407355.2,286047003.4,N
1566407375.9,286047003.9,N
1566407395.7,286047002.3,N
1566407415.6,286046999.7,N
1566407435.4,286046999.9,N
1566407455.2,286047002.6,N
1566407475.1,286047003.4,N
1566407476.0,286047003.4,N
1566407495.8,286047003.4,N
1566407515.7,286047000.2,N
1566407535.5,286047001.5,N
1566407555.3,286047003.3,N
1566407575.2,286047004.7,N
1566407595.0,286047002.9,N
1566407595.9,286047002.9,N
1566407615.7,286047003.8,N
1566407635.6,286047002.5,N
1566407655.4,286046999.8,N
1566407675.3,286047001.6,N
1566407695.1,286047002.6,N
1566407696.0,286047002.6,N
1566407715.8,286047002.3,N
1566407735.7,286047000.1,N
1566407755.5,286047000.7,N
1566407775.4,286047000.7,N
1566407795.2,286046998.2,N
1566407815.0,286046996.5,N
1566407815.9,286046996.5,N
1566407835.8,286046999.2,N
1566407855.6,286046998.5,N
1566407875.4,286047001.0,N
1566407895.3,286047000.4,N
1566407915.1,286046998.5,N
1566407935.9,286047002.5,N
1566407955.7,286047000.2,N
1566407975.5,286047001.0,N
1566407995.4,286046998.1,N
1566408015.2,286047000.1,N
1566408035.0,286047002.1,N
1566408036.0,286047002.1,N
1566408055.8,286046999.9,N
1566408075.6,286047000.5,N
1566408095.5,286046996.5,N
1566408115.3,286046998.7,N
1566408135.1,286047000.6,N
1566408155.9,286047001.2,N
1566408175.7,286046999.0,N
1566408195.6,286046998.9,N
1566408215.4,286046998.7,N
1566408235.2,286046998.4,N
1566408255.1,286047002.7,N
1566408256.0,286047002.7,N
1566408275.8,286047000.6,N
1566408295.6,286046999.1,N
1566408315.5,286047001.2,N
1566408335.3,286046998.1,N
1566408355.1,286046999.0,N
1566408375.9,286046998.5,N
1566408395.7,286046998.4,N
1566408415.6,286046999.6,N
1566408435.4,286046997.8,N
1566408455.2,286046999.0,N
1566408475.1,286046998.7,N
1566408476.0,286046998.7,N
1566408495.8,286046998.2,N
1566408515.7,286047002.4,N
1566408535.5,286047001.0,N
1566408555.3,286047001.7,N
1566408575.2,286047002.5,N
1566408595.9,286047004.0,N
1566408615.7,286047003.0,N
1566408635.6,286047004.2,N
1566408655.4,286047002.4,N
1566408675.3,286047002.6,N
1566408695.1,286047002.7,N
1566408696.0,286047002.7,N
1566408715.8,286047005.9,N
1566408735.7,286047005.3,N
1566408755.5,286047004.6,N
1566408775.3,286047004.6,N
1566408795.2,286047002.9,N
1566408815.0,286047001.4,N
1566408815.9,286047001.4,N
1566408835.8,286047001.4,N
1566408855.6,286047001.8,N
1566408875.4,286047001.3,N
1566408895.3,286047001.7,N
1566408915.1,286047000.9,N
1566408935.8,286047002.4,N
1566408955.7,286047000.1,N
1566408975.5,286046999.9,N
1566408995.4,286047000.5,N
1566409015.2,286046999.9,N
1566409035.0,286047003.2,N
1566409035.9,286047003.2,N
1566409055.8,286047003.9,N
1566409075.6,286047002.7,N
1566409095.4,286047004.4,N
1566409115.3,286047001.4,N
1566409135.1,286047002.4,N
1566409155.9,286047000.1,N
1566409175.7,286047004.3,N
1566409195.5,286047003.9,N
1566409215.4,286047005.0,Y
1566409235.2,286047001.8,P
1566409255.0,286047002.4,P
1566409255.9,286047002.4,P
1566409275.8,286047000.1,N
1566409295.6,286047000.1,N
1566409315.5,286046999.7,N
1566409335.3,286047000.9,N
1566409355.1,286047000.7,N
1566409375.9,286046999.9,N
1566409395.7,286047001.8,N
1566409415.5,286047001.7,N
1566409435.4,286047003.9,Y
1566409455.2,286047001.7,P
1566409475.1,286047004.1,P
1566409476.0,286047004.1,P
1566409495.8,286047004.0,N
1566409515.6,286047005.9,Y
1566409535.5,286047002.7,P
1566409555.3,286047000.3,N
1566409575.2,286047002.4,N
1566409595.9,286047002.7,N
1566409615.7,286047006.0,Y
1566409635.6,286047001.0,P
1566409655.4,286046998.4,N
1566409675.2,286047000.3,N
1566409695.1,286046999.1,N
1566409696.0,286046999.1,N
1566409715.8,286046998.3,N
1566409735.7,286046999.5,N
1566409755.5,286046997.2,N
1566409775.3,286046996.7,N
1566409795.2,286046997.2,N
1566409815.0,286046997.2,N
1566409815.9,286046997.2,N
1566409835.8,286046999.3,N
1566409855.6,286046998.1,N
1566409875.4,286047000.8,N
1566409895.3,286046999.4,N
1566409915.1,286046996.8,N
1566409935.8,286046997.8,N
1566409955.7,286046997.4,N
1566409975.5,286046995.2,Y
1566409995.4,286046995.8,P
1566410015.2,286046997.6,N
1566410035.0,286046995.3,P
1566410035.9,286046995.3,Y
1566410055.8,286047002.5,P
1566410075.6,286047003.5,N
1566410095.4,286047005.8,N
1566410115.3,286047003.2,N
1566410135.1,286046999.9,N
1566410155.9,286047001.5,N
1566410175.7,286047001.5,N
1566410195.5,286047002.1,N
1566410215.4,286047001.3,N
1566410235.2,286047002.7,N
1566410255.0,286047002.4,N
1566410255.9,286047002.4,N
1566410275.8,286047002.1,N
1566410295.6,286047001.2,N
1566410315.5,286047000.6,N
1566410335.3,286047000.7,N
1566410355.1,286047002.1,N
1566410375.9,286047002.2,N
1566410395.7,286047001.6,N
